TEVEL2-1

Last updated on Thu Oct 30 2025 00:03:11 GMT+0000 (Coordinated Universal Time)

1 63217U 25052H 25302.49705780 .00020269 00000+0 82581-3 0 9990 2 63217 97.4093 194.5305 0001946 172.5189 187.6077 15.24501874 34834
UTC large
Height (km)
Speed (km/s)
/
Latitude / Longitude
Inclination (degrees)
Orbital Period (minutes)
Azimuth
Elevation
Range (km)
Doppler Factor

Next 0 passes for location: London (51.5072 / 0.1276)

Sorry there are no passes over London.